Location: ???
(31.8573°N, 35.2587°E)
Time: 09:18:16
(UTC+00:00)

Daily predictions for brighter satellites

Satellite Brightness Start Highest point End
(mag) Time Altitude Azimuth Time Altitude Azimuth Time Altitude Azimuth
ADEOS Rocket 4.3 15:29:56 10° NE 15:35:58 28° E 15:42:15 10° SSE
Cosmos 44 Rocket 3.9 15:36:35 10° SW 15:41:20 57° WNW 15:46:02 10° NNE
CSL-04 Rocket 4.5 15:36:53 10° SE 15:41:34 29° ENE 15:46:17 10° N
SKYMED 2 3.7 15:42:23 10° N 15:46:44 85° W 15:51:04 10° SSW
Okean-O 2.6 15:42:26 10° SSE 15:46:51 84° ENE 15:51:18 10° N
USA 238 DEB 3.7 15:40:56 10° SSW 15:47:27 67° ESE 15:54:10 10° NE
USA 238 3.7 15:41:03 10° SSW 15:47:34 66° ESE 15:54:16 10° NE
Cosmos 1437 3.9 15:45:28 10° SE 15:47:47 20° E 15:50:07 10° NE
DELTA 2 R/B (1) 3.7 15:43:14 10° WNW 15:48:46 62° NNE 15:54:18 10° E
Cosmos 1624 Rocket 4.5 15:47:01 10° S 15:51:57 41° E 15:56:52 10° NNE
YAOGAN 1 3.1 15:48:12 10° SE 15:52:07 35° ENE 15:56:03 10° N
CZ-4 R/B 1.6 15:49:41 10° SSE 15:53:35 47° ENE 15:57:34 10° N
Timation 1 Rocket 4.4 15:48:10 10° S 15:54:01 62° ESE 15:59:55 10° NNE
OAO 3 Rocket 3.2 15:51:42 10° W 15:56:21 73° NNW 16:00:09 15° ENE
Meteor 2-10 Rocket 4.2 15:53:05 10° NNW 15:58:05 56° W 16:02:58 10° S
Cosmos 1455 3.9 15:55:57 10° NNW 15:59:26 37° W 16:02:54 10° SSW
SL-4 R/B 4.2 15:57:13 10° SSE 15:59:54 15° SE 16:01:35 13° E
STARLINK-46 2.2 16:00:40 10° SW 16:03:14 84° SE 16:04:44 21° NE
Cosmos 1727 Rocket 3.9 15:57:21 10° N 16:03:33 80° E 16:09:43 10° S
OAO 2 Rocket 3.3 16:03:17 10° W 16:08:11 73° NNW 16:11:36 20° ENE
Cosmos 2056 Rocket 3.6 16:03:08 10° S 16:08:15 59° ESE 16:13:29 10° NNE
USA 102 4.2 16:06:11 10° SSE 16:10:17 87° ENE 16:15:15 10° NNW
ATLAS CENTAUR R/B 1.2 16:08:18 10° NNW 16:12:06 76° WSW 16:15:40 10° SSE
YAOGAN 6 4.3 16:12:58 10° SSW 16:16:23 37° W 16:19:48 10° NNW
CZ-2D R/B 3.2 16:17:36 10° SSE 16:21:21 58° ENE 16:25:09 10° N
GPS 2-05 Rocket1 3.0 16:22:26 10° WNW 16:24:46 34° N 16:24:51 34° N
SL-16 R/B 3.7 16:19:43 10° NW 16:24:55 39° WSW 16:30:06 10° S
Atlas 2A Centaur Rocket 3.1 16:21:09 10° WSW 16:28:59 34° S 16:30:34 23° SE
Cosmos 1140 Rocket 4.2 16:24:44 10° N 16:29:16 29° ENE 16:29:32 29° ENE
ATLAS 3B R/B 3.1 16:23:28 10° S 16:29:38 38° ESE 16:32:31 26° ENE
Delta 2 Rocket 4.1 16:24:27 10° WSW 16:30:09 69° SSE 16:32:49 31° E
Cosmos 1821 Rocket 4.1 16:23:49 10° S 16:30:11 81° W 16:36:31 10° N
Cosmos 2263 Rocket 2.8 16:25:49 10° SSW 16:31:15 57° WNW 16:36:45 10° N
Cosmos 1842 Rocket 4.3 16:30:43 10° NNW 16:35:05 55° W 16:39:27 10° S
Genesis I 3.1 16:33:22 10° SSW 16:37:17 65° ESE 16:38:11 48° ENE
Cosmos 1869 3.2 16:33:53 10° N 16:37:48 61° E 16:41:40 10° SSE
Cosmos 1603 3.6 16:32:55 10° NNW 16:38:32 66° ENE 16:44:04 10° SSE
NOSS 3-2 (C) 3.2 16:34:50 10° SSW 16:40:24 88° NW 16:44:50 19° NNE
Cosmos 1844 Rocket 3.6 16:36:49 10° SSE 16:40:41 28° ESE 16:40:41 28° ESE
Shenzhou-11 Module 4.2 16:39:20 10° NNW 16:40:03 15° NNW 16:40:03 15° NNW
Cosmos 1605 Rocket 4.2 16:35:44 10° SSE 16:41:42 46° E 16:47:43 10° NNE
NOAA 11 4.4 16:36:20 10° S 16:41:49 73° WSW 16:47:18 10° NNW
Cosmos 1939 Rocket 3.1 16:38:46 10° S 16:42:39 69° WSW 16:46:38 10° NNW
CENTAUR R/B 2.2 16:38:37 10° SSW 16:44:09 74° ESE 16:47:47 26° NE
Cosmos 1452 Rocket 3.6 16:45:19 10° S 16:50:21 48° ESE 16:50:38 48° E
NOSS 3-2 (A) 4.5 16:51:23 10° WSW 16:56:36 39° NW 17:02:02 11° NNE
Cosmos 2221 3.9 16:52:50 10° NNW 16:56:51 39° W 17:00:52 10° SSW
Cosmos 1934 Rocket 4.0 16:52:04 10° S 16:58:08 79° W 17:04:12 10° N
Cosmos 2151 3.7 16:58:47 10° S 17:01:31 40° S 17:01:31 40° S
Cosmos 1943 3.1 17:00:16 10° NNW 17:05:57 87° ENE 17:09:31 24° SSE
CCE 1 Rocket 3.9 17:01:12 10° WSW 17:05:50 52° S 17:05:50 52° S
Cosmos 1892 3.4 17:02:18 10° SSW 17:06:04 54° W 17:06:43 48° NW
Cosmos 2123 Rocket 3.8 16:59:57 10° N 17:06:16 80° E 17:12:29 10° S
Atlas Centaur 2 2.3 17:02:33 10° W 17:06:44 48° SSW 17:07:20 45° S
USA 234 3.2 17:07:11 27° SE 17:11:00 83° SW 17:17:35 10° NW
Okean 3 Rocket 3.7 17:06:50 10° S 17:10:52 71° SW 17:10:52 71° SW
Cosmos 407 Rocket 3.7 17:06:47 10° NNW 17:11:59 69° WSW 17:17:06 10° S
Cosmos 1420 Rocket 4.1 17:08:07 10° SSW 17:13:16 70° WNW 17:14:53 44° N
Cosmos 1190 Rocket 4.1 17:09:34 10° NNW 17:14:53 78° WSW 17:17:36 30° S
ADEOS Rocket 4.3 17:14:36 10° N 17:21:24 49° WNW 17:28:42 10° SW
Ariane Rocket 3.3 17:20:03 10° S 17:25:02 62° WSW 17:30:05 10° NNW
DELTA 2 R/B (1) 4.5 17:29:53 10° WNW 17:35:07 41° SW 17:35:22 41° SSW
SL-4 R/B 3.8 17:34:30 10° SW 17:37:14 33° WSW 17:37:14 33° WSW
FALCON 9 R/B 3.0 17:41:44 10° W 17:54:45 67° WNW 17:54:45 67° WNW
ATLAS 3B R/B 4.0 18:14:17 10° WSW 18:19:50 33° WNW 18:19:50 33° WNW
CZ-3 R/B 4.5 22:28:59 10° WSW 23:48:03 65° ESE 23:59:25 10° E
